[[{"header":{"parameterUnit":"m.s-1","parameterCategory":1,"la1":30.2991,"la2":30.254,"lo1":-89.0895,"lo2":-89.0444,"dy":0.0017,"dx":0.0017,"nx":28,"ny":28,"refTime":"2025-03-15T21:00:00:Z","depth":0,"parameterNumber":2,"parameterNumberName":"U-component_of_WINDS"},"data":[0,0,0,0,0,0,0,0,0,0,0,0,0,0,0,0,0,0,0,0,0,0,0,0,0,0,0,0,0,0,0,0,0,0,0,0,0,0,0,0,0,0,0,0,0,0,0,0,0,0,0,0,0,0,0,0,0,0,6.7257,6.7259,0,6.7382,6.7384,6.7385,6.737,6.7368,6.7366,6.7364,6.7493,6.7498,6.7504,0,0,0,0,0,0,0,0,0,0,0,0,0,6.7008,6.7013,6.7257,6.7259,6.726,6.7382,6.7384,6.7385,6.737,6.7368,6.7365,6.7363,6.7492,6.7498,6.7504,0,0,0,0,0,0,0,0,0,0,0,0,0,6.7123,6.7014,6.7257,6.7267,6.7269,6.7382,6.7384,6.7386,6.7371,6.7368,6.7364,6.7362,6.7489,6.7497,6.7505,6.7616,0,0,6.753,6.7533,0,0,0,0,0,0,0,0,6.7117,6.7132,6.7264,6.7267,6.7269,6.7357,6.7343,6.7463,6.7371,6.7332,6.7364,6.736,6.7451,6.7462,6.7492,6.7622,6.7627,6.753,6.7535,6.7539,6.7541,0,0,0,0,0,0,0,6.7109,6.7127,6.7307,6.7266,6.7269,6.7267,6.728,6.7366,6.7407,6.7335,6.7335,6.735,6.7451,6.7484,6.7495,6.7629,6.753,6.7537,6.7542,6.7545,6.7858,6.7862,0,0,0,0,0,0,6.7098,6.712,6.7303,6.731,6.7184,6.7274,6.7288,6.7332,6.7406,6.7414,6.7352,6.7348,6.7472,6.7485,6.7499,6.7635,6.7539,6.7546,6.7551,6.7855,6.7859,6.7863,0,0,0,0,0,0,6.7092,6.7114,6.7298,6.7215,6.7238,6.7281,6.7331,6.7336,6.7369,6.7419,6.7426,6.7378,6.747,6.7488,6.7587,6.7639,6.755,6.7557,6.7851,6.7856,6.7861,6.7906,0,0,0,0,0,0,6.7085,6.7112,6.7154,6.7216,6.7243,6.7383,6.7334,6.7341,6.7382,6.7379,6.7445,6.7453,6.7469,6.7575,6.7595,6.7649,6.7563,6.7846,6.7853,6.7859,6.79,6.7912,6.7923,0,0,0,0,0,6.7077,6.7161,6.7156,6.7178,6.7296,6.7386,6.7401,6.7418,6.7387,6.743,6.7462,6.745,6.763,6.7586,6.7608,6.7664,6.7843,6.7851,6.7859,6.7895,6.791,6.7922,0,0,0,0,0,0,6.7104,6.717,6.7164,6.7272,6.7323,6.7383,6.7437,6.7432,6.7494,6.7488,6.7507,6.7522,6.7623,6.7653,6.7603,6.7777,6.7733,6.7745,6.7753,6.7767,6.7778,6.7769,6.757,0,0,0,0,0,6.7122,6.7189,6.7244,6.7333,6.7359,6.7394,6.7434,6.7443,6.7497,6.7519,6.7558,6.7612,6.7681,6.7725,6.7791,6.7905,6.792,6.7955,6.7966,6.7975,6.7986,6.805,6.8067,6.7889,6.7889,6.7889,0,0,6.7161,6.7206,6.7247,6.734,6.7381,6.7451,6.7412,6.7488,6.754,6.753,6.7627,6.7658,6.7719,6.7826,6.7876,6.7855,6.8039,6.7985,6.7992,6.7998,6.806,6.8077,6.8092,6.7894,6.7893,6.7893,0,0,6.7268,6.7308,6.7388,6.743,6.7493,6.7515,6.7535,6.7596,6.7616,6.7713,6.7708,6.7771,6.7888,6.7933,6.7971,6.8098,6.809,6.8119,6.8178,6.824,6.8254,6.8267,6.8313,6.833,6.8129,6.813,6.813,0,6.7309,6.7414,6.743,6.7507,6.7549,6.7543,6.7625,6.7665,6.7746,6.7776,6.7752,6.7901,6.7941,6.806,6.8091,6.8122,6.8146,6.8111,6.8251,6.8263,6.8275,6.832,6.8338,6.8133,6.8132,6.8132,6.8132,0,6.7462,6.7535,6.7592,6.7671,6.7719,6.7798,6.7827,6.7875,6.788,6.7905,6.8006,6.8055,6.8131,6.816,6.8165,6.8281,6.8266,6.8246,6.8203,6.8295,6.8338,6.8355,6.8137,6.8136,6.8135,6.8134,0,0,6.7589,6.7676,6.7697,6.7734,6.7803,6.7861,6.794,6.8015,6.8056,6.8113,6.8181,6.8282,6.8265,6.8308,6.8319,6.8373,6.8473,6.8347,6.8349,6.837,6.8605,6.862,6.8639,6.8468,6.8471,6.8474,6.86,0,6.7704,6.7844,6.7862,6.7987,6.8055,6.8052,6.8122,6.8173,6.8199,6.8262,6.8292,6.8364,6.8335,6.8361,6.8415,6.8449,6.852,6.844,6.8533,6.8536,6.8519,6.8661,6.8677,6.8793,6.8616,6.8619,6.8621,0,6.7856,6.7918,6.805,6.8112,6.8141,6.8203,6.8275,6.8334,6.8393,6.8409,6.8458,6.8462,6.8546,6.8499,6.8616,6.8561,6.8601,6.8624,6.8629,6.8638,6.8585,6.8676,6.8831,6.8848,6.8647,6.8645,6.8643,0,6.7938,6.8053,6.8148,6.8179,6.8253,6.8297,6.833,6.8386,6.843,6.8493,6.8522,6.8594,6.8633,6.8689,6.8714,6.8677,6.883,6.8784,6.8847,6.8846,6.8879,6.8877,6.9044,6.8903,6.8903,6.8903,6.8902,0,6.8065,6.8146,6.8185,6.8244,6.8335,6.8355,6.8446,6.8477,6.8527,6.8593,6.8594,6.8655,6.8683,6.8749,6.8768,6.8864,6.8881,6.8897,6.8902,6.8898,6.8896,6.8924,6.8917,6.8907,6.8906,6.8905,6.8905,0,6.8171,6.8201,6.8304,6.8366,6.8384,6.8449,6.8502,6.856,6.8586,6.8669,6.8689,6.8732,6.881,6.8839,6.8934,6.8948,6.9058,6.9055,6.9038,6.904,6.9101,6.9095,6.9292,6.932,6.916,6.9161,6.9163,0,6.8251,6.8314,6.8383,6.8426,6.8461,6.8531,6.8577,6.86,6.8648,6.872,6.8769,6.8847,6.891,6.9036,6.9076,6.9149,6.9149,6.9213,6.916,6.9155,6.9152,6.9148,6.9155,6.9223,6.9224,6.9226,6.9227,0,6.839,6.8402,6.8467,6.8539,6.8593,6.8651,6.8707,6.8742,6.8774,6.8828,6.8908,6.8957,6.9055,6.9133,6.9209,6.9244,6.9242,6.9243,6.9262,6.9259,6.9247,6.9256,6.9066,6.9239,6.9237,6.9237,6.9236,6.9235,6.8487,6.8543,6.8601,6.8674,6.8719,6.8771,6.8829,6.8863,6.8929,6.901,6.902,6.9106,6.9165,6.9267,6.9306,6.9374,6.9357,6.9384,6.9391,6.9397,6.9402,6.9235,6.9388,6.9388,6.9387,6.9387,6.9387,0,6.8627,6.8664,6.8732,6.881,6.8868,6.886,6.8922,6.8972,6.9048,6.9102,6.9165,6.9258,6.9334,6.938,6.9457,6.9503,6.9504,6.9523,6.952,6.9528,6.9412,6.9389,6.9521,6.9521,6.9521,6.9521,6.952,6.952,6.8707,6.8802,6.8821,6.8939,6.8976,6.906,6.9097,6.9146,6.919,6.9293,6.9356,6.9385,6.9438,6.9518,6.9588,6.96,6.9629,6.9649,6.9659,6.955,6.9536,6.9523,6.9502,6.9655,6.9655,6.977,6.9771,6.9772]},{"header":{"parameterUnit":"m.s-1","parameterCategory":1,"la1":30.2991,"la2":30.254,"lo1":-89.0895,"lo2":-89.0444,"dy":0.0017,"dx":0.0017,"nx":28,"ny":28,"refTime":"2025-03-15T21:00:00:Z","depth":0,"parameterNumber":3,"parameterNumberName":"V-component_of_WINDS"},"data":[0,0,0,0,0,0,0,0,0,0,0,0,0,0,0,0,0,0,0,0,0,0,0,0,0,0,0,0,0,0,0,0,0,0,0,0,0,0,0,0,0,0,0,0,0,0,0,0,0,0,0,0,0,0,0,0,0,0,-1.3182,-1.3181,0,-1.3129,-1.3129,-1.3128,-1.3131,-1.3132,-1.3133,-1.3133,-1.3077,-1.3075,-1.3072,0,0,0,0,0,0,0,0,0,0,0,0,0,-1.3285,-1.3283,-1.3182,-1.3181,-1.3181,-1.3129,-1.3129,-1.3128,-1.3131,-1.3132,-1.3133,-1.3134,-1.3077,-1.3075,-1.3072,0,0,0,0,0,0,0,0,0,0,0,0,0,-1.3237,-1.3283,-1.3182,-1.3176,-1.3175,-1.3129,-1.3129,-1.3128,-1.3131,-1.3132,-1.3133,-1.3134,-1.3078,-1.3075,-1.3072,-1.3028,0,0,-1.3062,-1.306,0,0,0,0,0,0,0,0,-1.324,-1.3233,-1.3178,-1.3176,-1.3175,-1.3138,-1.3144,-1.3094,-1.313,-1.3147,-1.3133,-1.3135,-1.3096,-1.3091,-1.3079,-1.3025,-1.3023,-1.3061,-1.3059,-1.3058,-1.3057,0,0,0,0,0,0,0,-1.3243,-1.3236,-1.3161,-1.3177,-1.3175,-1.3176,-1.317,-1.3135,-1.3116,-1.3146,-1.3146,-1.314,-1.3096,-1.3082,-1.3077,-1.3022,-1.3061,-1.3058,-1.3056,-1.3055,-1.2933,-1.2932,0,0,0,0,0,0,-1.3248,-1.3238,-1.3163,-1.3159,-1.3211,-1.3173,-1.3167,-1.3149,-1.3116,-1.3112,-1.3139,-1.314,-1.3087,-1.3081,-1.3075,-1.3024,-1.3058,-1.3055,-1.3053,-1.2935,-1.2933,-1.2932,0,0,0,0,0,0,-1.325,-1.3241,-1.3165,-1.3199,-1.3189,-1.317,-1.315,-1.3147,-1.3133,-1.3111,-1.3107,-1.3129,-1.3088,-1.308,-1.3041,-1.3022,-1.3053,-1.305,-1.2936,-1.2934,-1.2933,-1.2919,0,0,0,0,0,0,-1.3253,-1.3242,-1.3225,-1.3199,-1.3187,-1.3131,-1.3148,-1.3145,-1.3128,-1.3129,-1.31,-1.3097,-1.3088,-1.3046,-1.3037,-1.3018,-1.3048,-1.2938,-1.2935,-1.2933,-1.2921,-1.2917,-1.2914,0,0,0,0,0,-1.3257,-1.3222,-1.3224,-1.3215,-1.3166,-1.313,-1.3123,-1.3115,-1.3126,-1.3109,-1.3096,-1.3098,-1.3026,-1.3042,-1.3032,-1.3011,-1.2939,-1.2936,-1.2933,-1.2923,-1.2918,-1.2914,0,0,0,0,0,0,-1.3244,-1.3218,-1.322,-1.3176,-1.3155,-1.313,-1.3108,-1.3109,-1.3084,-1.3086,-1.3076,-1.307,-1.3031,-1.3017,-1.3035,-1.2969,-1.2984,-1.2979,-1.2979,-1.2974,-1.297,-1.2974,-1.3045,0,0,0,0,0,-1.3237,-1.321,-1.3189,-1.3152,-1.3141,-1.3127,-1.311,-1.3106,-1.3084,-1.3075,-1.3058,-1.3036,-1.3009,-1.2991,-1.2964,-1.292,-1.2914,-1.2901,-1.2897,-1.2894,-1.289,-1.2868,-1.2862,-1.2923,-1.2923,-1.2923,0,0,-1.322,-1.3203,-1.3186,-1.3149,-1.3132,-1.3105,-1.3119,-1.3089,-1.3069,-1.307,-1.3032,-1.302,-1.2995,-1.2953,-1.2934,-1.2941,-1.2873,-1.2891,-1.2889,-1.2886,-1.2865,-1.2859,-1.2854,-1.2921,-1.2921,-1.2922,0,0,-1.3176,-1.316,-1.3129,-1.3113,-1.3089,-1.308,-1.3072,-1.3048,-1.304,-1.3002,-1.3004,-1.298,-1.2932,-1.2915,-1.29,-1.2854,-1.2856,-1.2846,-1.2826,-1.2804,-1.28,-1.2795,-1.278,-1.2775,-1.2842,-1.2842,-1.2842,0,-1.3159,-1.3118,-1.3112,-1.3083,-1.3067,-1.3069,-1.3038,-1.3022,-1.299,-1.2979,-1.2988,-1.2931,-1.2914,-1.287,-1.2859,-1.2846,-1.2838,-1.2848,-1.2801,-1.2797,-1.2792,-1.2778,-1.2772,-1.2841,-1.2841,-1.2841,-1.2841,0,-1.3098,-1.307,-1.3048,-1.3019,-1.3001,-1.297,-1.296,-1.2943,-1.2941,-1.2932,-1.2895,-1.2875,-1.2846,-1.2835,-1.2832,-1.2791,-1.2797,-1.2803,-1.2818,-1.2786,-1.2772,-1.2766,-1.284,-1.284,-1.284,-1.2841,0,0,-1.3042,-1.3013,-1.3005,-1.2993,-1.2968,-1.2947,-1.2917,-1.289,-1.2876,-1.2855,-1.2831,-1.2793,-1.28,-1.2783,-1.2778,-1.276,-1.2727,-1.2769,-1.2768,-1.2762,-1.2682,-1.2678,-1.2671,-1.2728,-1.2727,-1.2726,-1.2685,0,-1.2996,-1.2945,-1.2941,-1.2895,-1.287,-1.2874,-1.2849,-1.2831,-1.2822,-1.28,-1.279,-1.2764,-1.2774,-1.2765,-1.2746,-1.2734,-1.271,-1.2737,-1.2706,-1.2705,-1.2712,-1.2664,-1.2658,-1.262,-1.2679,-1.2678,-1.2677,0,-1.2935,-1.2915,-1.2867,-1.2848,-1.2838,-1.2815,-1.2792,-1.277,-1.2751,-1.2746,-1.273,-1.2729,-1.27,-1.2716,-1.2677,-1.2696,-1.2683,-1.2675,-1.2674,-1.267,-1.2689,-1.2659,-1.2607,-1.2601,-1.2669,-1.2669,-1.267,0,-1.2901,-1.2861,-1.2828,-1.2817,-1.2794,-1.2779,-1.2769,-1.2751,-1.2736,-1.2716,-1.2706,-1.2682,-1.2669,-1.265,-1.2644,-1.2656,-1.2605,-1.2621,-1.2601,-1.2601,-1.2589,-1.259,-1.2534,-1.2581,-1.2581,-1.2581,-1.2581,0,-1.285,-1.2821,-1.2812,-1.2792,-1.276,-1.2756,-1.2724,-1.2715,-1.27,-1.2678,-1.268,-1.2659,-1.2652,-1.263,-1.2625,-1.2594,-1.2588,-1.2583,-1.2582,-1.2583,-1.2584,-1.2574,-1.2577,-1.2579,-1.258,-1.258,-1.258,0,-1.2805,-1.2798,-1.2763,-1.2746,-1.2741,-1.2718,-1.2703,-1.2684,-1.2677,-1.265,-1.2643,-1.2632,-1.2607,-1.2599,-1.2568,-1.2565,-1.253,-1.253,-1.2536,-1.2536,-1.2517,-1.2519,-1.2453,-1.2445,-1.2496,-1.2496,-1.2495,0,-1.2773,-1.2751,-1.2733,-1.2719,-1.2709,-1.2686,-1.2672,-1.2668,-1.2653,-1.2631,-1.2615,-1.2591,-1.2572,-1.2532,-1.2521,-1.2499,-1.2499,-1.2478,-1.2496,-1.2499,-1.25,-1.2502,-1.25,-1.2474,-1.2474,-1.2473,-1.2473,0,-1.2718,-1.2716,-1.2696,-1.2675,-1.2658,-1.2641,-1.2625,-1.2614,-1.2608,-1.2591,-1.2567,-1.2552,-1.2522,-1.2499,-1.2477,-1.2466,-1.2469,-1.2468,-1.2462,-1.2463,-1.2468,-1.2466,-1.2527,-1.2469,-1.247,-1.247,-1.247,-1.247,-1.2679,-1.266,-1.2645,-1.2623,-1.2611,-1.2597,-1.2579,-1.2571,-1.2551,-1.2527,-1.2526,-1.25,-1.2485,-1.2455,-1.2444,-1.2425,-1.2431,-1.2422,-1.242,-1.2418,-1.2417,-1.2471,-1.242,-1.242,-1.242,-1.2421,-1.2421,0,-1.2624,-1.2615,-1.2595,-1.2574,-1.2557,-1.2563,-1.2546,-1.2531,-1.2509,-1.2494,-1.2476,-1.245,-1.2428,-1.2417,-1.2395,-1.2382,-1.2383,-1.2376,-1.2377,-1.2375,-1.2412,-1.242,-1.2376,-1.2376,-1.2376,-1.2376,-1.2376,-1.2376,-1.2594,-1.2564,-1.2561,-1.2526,-1.2517,-1.2493,-1.2483,-1.247,-1.2459,-1.243,-1.2412,-1.2406,-1.2393,-1.2371,-1.2352,-1.2349,-1.2342,-1.2335,-1.2333,-1.2368,-1.2372,-1.2376,-1.2383,-1.2333,-1.2333,-1.2298,-1.2297,-1.2297]}]]